[Iaude] MPEC A131: 2024 AG3 [a=1.80,e=0.49,i=4.3,H=27.8]
    mpec at marsden.cfa.harvard.edu 
    mpec at marsden.cfa.harvard.edu
       
    Thu Jan 11 17:47:02 EST 2024
    
    
  
M.P.E.C. 2024-A131                             Issued 2024 January 11, 22:44 UT
     The Minor Planet Electronic Circulars contain information on unusual
         minor planets, routine data on comets and natural satellites,
         and occasional editorial announcements.  They are published
    on behalf of Division F of the International Astronomical Union by the
          Minor Planet Center, Smithsonian Astrophysical Observatory,
                          Cambridge, MA 02138, U.S.A.
			  
             Prepared using the Tamkin Foundation Computer Network
                              MPC at CFA.HARVARD.EDU
            URL https://www.minorplanetcenter.net/    ISSN 1523-6714
                                    2024 AG3                                    
Observations:
     K24A03G KC2024 01 10.96105707 43 40.10 +33 20 39.9          20.3 RoEA131K88
     K24A03G KC2024 01 10.96254907 43 42.45 +33 20 27.0          20.4 RoEA131K88
     K24A03G KC2024 01 10.96553507 43 47.08 +33 20 03.7          20.1 RoEA131K88
     K24A03G* C2024 01 10.97861107 44 07.47 +33 18 17.5          20.2 RoEA131K88
     K24A03G  C2024 01 10.98194107 44 12.58 +33 17 49.9                oEA131K88
     K24A03G  C2024 01 10.98525607 44 17.83 +33 17 23.2          20.2 RoEA131K88
     K24A03G hC2024 01 11.01298407 45 03.36 +33 13 50.3          20.1 GVEA131L01
     K24A03G hC2024 01 11.01446207 45 05.71 +33 13 38.1          20.5 GVEA131L01
     K24A03G KC2024 01 11.01485307 45 04.56 +33 13 15.0          20.3 RoEA131K88
     K24A03G hC2024 01 11.01594207 45 08.08 +33 13 25.9          20.3 GVEA131L01
     K24A03G hC2024 01 11.01758507 45 10.65 +33 13 11.9          20.0 GVEA131L01
     K24A03G KC2024 01 11.01831907 45 10.06 +33 12 45.3          19.8 RoEA131K88
     K24A03G KC2024 01 11.17985707 50 19.40 +32 49 54.7          20.0 GXEA131858
     K24A03G KC2024 01 11.18508407 50 28.34 +32 49 11.3          20.5 GXEA131858
     K24A03G KC2024 01 11.19114007 50 38.77 +32 48 19.9          20.1 GXEA131858
     K24A03G KB2024 01 11.21947 07 51 22.85 +32 44 10.4          20.2 GXEA131H36
     K24A03G KB2024 01 11.22332 07 51 29.33 +32 43 34.4          20.1 GXEA131H36
     K24A03G KB2024 01 11.22718 07 51 36.08 +32 42 59.2          20.3 GXEA131H36
     K24A03G KB2024 01 11.23091 07 51 42.38 +32 42 27.0          20.3 GXEA131H36
     K24A03G KC2024 01 11.32152807 54 16.41 +32 27 45.8                VEA131H21
     K24A03G KC2024 01 11.32311007 54 19.22 +32 27 29.3                VEA131H21
     K24A03G KC2024 01 11.32469107 54 21.98 +32 27 12.7                VEA131H21
     K24A03G KC2024 01 11.32732807 54 26.66 +32 26 45.7          19.9 GVEA131H21
     K24A03G KB2024 01 11.91885808 16 01.00 +30 26 10.9          19.0 GXEA131958
     K24A03G KB2024 01 11.92362008 16 11.95 +30 25 05.5          19.2 GXEA131958
     K24A03G KB2024 01 11.92835808 16 22.82 +30 23 59.8          19.3 GXEA131958
Observer details:
858 Tebbutt Observatory, Edgewood.  Observer F. B. Zoltowski.  0.51-m f/8.1
    Schmidt-Cassegrain + CCD.
958 Observatoire de Dax.  Observer P. Dupouy.  0.50-m f/4.5 Reflector + CMO.
H21 Astronomical Research Observatory, Westfield.  Observer R. Holmes.
    Measurers T. Linder, R. Holmes, L. Horn.  0.76-m f/3.0 astrograph + CCD.
H36 Sandlot Observatory, Scranton.  Observer G. Hug.  0.56-m f/4.8 reflector +
    CMO.
K88 GINOP-KHK, Piszkesteto.  Observer K. Sarneczky.  0.60-m Schmidt + CCD.
L01 Visnjan Observatory, Tican.  Observers K. Korlevic, L. Poropat.  Measurer
    K. Korlevic.  1.0-m f/2.9 reflector + CCD.
Orbital elements:
2024 AG3                                                 Earth MOID = 0.0022 AU
Epoch 2023 Sept. 13.0 TT = JDT 2460200.5                Veres                   
M 297.42985              (2000.0)            P               Q                  
n   0.40831656     Peri.  218.82118     -0.88568074     -0.45924975             
a   1.7994428      Node   293.71200     +0.44240922     -0.79015697             
e   0.4887655      Incl.    4.27554     +0.14086774     -0.40588378             
P   2.41           H   27.82          G   0.15           U   8                  
Residuals in seconds of arc
240110 K88  0.2+  0.2+    240111 L01  0.3+  0.1+    240111 H36  0.6-  1.4+
240110 K88  0.6+  0.7-    240111 L01  0.1-  0.0     240111 H21  0.3+  0.3+
240110 K88  0.5+  0.1-    240111 K88  0.2+  0.2-    240111 H21  0.4+  0.1+
240110 K88  0.5+  0.3-    240111 858  0.5+  0.2-    240111 H21  0.1-  0.2-
240110 K88  0.7-  0.6-    240111 858  0.1+  0.1+    240111 H21  0.1-  0.0
240110 K88  0.0   0.1-    240111 858  0.7+  0.4-    240111 958  0.6-  1.2-
240111 L01  0.3-  0.4-    240111 H36  0.3-  1.9+    240111 958  0.0   0.2-
240111 L01  0.1-  0.2-    240111 H36  1.5-  0.4+    240111 958  0.2+  0.6+
240111 K88  0.3+  0.2-    240111 H36  0.4+  0.1-
Ephemeris:
2024 AG3                 a,e,i = 1.80, 0.49, 4                   q = 0.9199
Date    TT    R. A. (2000) Decl.     Delta      r    Elong.  Phase     V
2023 12 12    05 50 22.4 +36 42 25   0.2098  1.1880   164.2    13.1    25.6
...
2023 12 27    06 01 19.6 +37 46 05   0.1102  1.0903   165.0    13.5    24.0
...
2024 01 04    06 22 03.9 +37 39 23   0.06269 1.0436   163.5    15.5    22.7
...
2024 01 10    07 20 54.7 +35 00 25   0.02933 1.0120   167.1    12.5    20.9
2024 01 11    07 44 44.2 +33 17 02   0.02417 1.0071   168.0    11.8    20.5
2024 01 12    08 18 59.4 +30 08 38   0.01934 1.0023   166.3    13.4    20.0
...
2024 01 18    14 53 34.0 -32 28 26   0.02152 0.9757    67.3   111.5    23.7
...
2024 01 26    16 39 15.6 -38 08 56   0.06448 0.9473    53.3   123.6    26.9
...
2024 02 10    17 21 20.5 -38 16 20   0.1488  0.9200    59.5   112.5    27.8
M. P. C. Staff               (C) Copyright 2024 MPC           M.P.E.C. 2024-A131
    
    
More information about the Iaude
mailing list